This demonstration page uses our WeatherBlox Daily Observations layout. Learn more.

38.88101, -77.10428

Hourly Observations for January 5, 2017

Temp ( °F °C ) Dew Point ( °F °C ) Humidity (%) Winds ( mph kmh ) Pressure ( in mb ) Visibility ( mi km ) Precip ( " mm )
12:52 am 00:52 Clear 34 1.1 10 -12.2 37 37 WNW 8 13 29.92 1013 10 16.0934 0 0
1:52 am 01:52 Clear 33 0.6 9 -12.8 36 36 NW 12 19 29.92 1013 10 16.0934 0 0
2:52 am 02:52 Clear 32 0 9 -12.8 38 38 NNW 7 11 29.95 1014 10 16.0934 0 0
3:52 am 03:52 Clear 32 0 9 -12.8 38 38 NW 9 15 29.96 1015 10 16.0934 0 0
4:52 am 04:52 Partly Cloudy 30 -1.1 10 -12.2 43 43 NNW 9 15 29.96 1015 10 16.0934 0 0
5:52 am 05:52 Cloudy 32 0 10 -12.2 40 40 NNW 8 13 29.98 1015 10 16.0934 0 0
6:52 am 06:52 Cloudy 32 0 9 -12.8 38 38 NNW 9 15 30.01 1016 10 16.0934 0 0
7:52 am 07:52 Cloudy 32 0 10 -12.2 40 40 NNW 8 13 30.04 1017 10 16.0934 0 0
8:52 am 08:52 Cloudy 32 0 10 -12.2 40 40 NNW 10 17 30.07 1018 10 16.0934 0 0
9:52 am 09:52 Cloudy 33 0.6 11 -11.7 40 40 S 5 7 30.06 1018 10 16.0934 0 0
10:52 am 10:52 Cloudy 34 1.1 13 -10.6 42 42 NNE 5 7 30.05 1018 10 16.0934 0 0
11:52 am 11:52 Cloudy 35 1.7 17 -8.3 48 48 S 7 11 30.02 1017 10 16.0934 0 0
12:52 pm 12:52 Cloudy 36 2.2 18 -7.8 48 48 S 7 11 29.98 1015 10 16.0934 0 0
1:52 pm 13:52 Cloudy 36 2.2 20 -6.7 52 52 VRB 3 6 29.97 1015 10 16.0934 0 0
2:35 pm 14:35 Cloudy with Light Snow 35 1.7 24 -4.4 64 64 W 8 13 30 1016 10 16.0934 0.001 0.001
2:52 pm 14:52 Cloudy with Light Snow 34 1.1 25 -3.9 70 70 W 8 13 29.98 1015 5 8.0467 0.001 0.001
3:52 pm 15:52 Cloudy with Light Snow 34 1.1 27 -2.8 76 76 W 3 6 29.98 1015 6 9.65604 0.001 0.001
4:52 pm 16:52 Cloudy 35 1.7 25 -3.9 67 67 Calm 29.95 1014 10 16.0934 0.001 0.001
5:52 pm 17:52 Cloudy 36 2.2 20 -6.7 52 52 SE 6 9 29.96 1014 10 16.0934 0 0
6:52 pm 18:52 Cloudy 36 2.2 19 -7.2 50 50 SSE 6 9 29.97 1015 10 16.0934 0 0
7:52 pm 19:52 Cloudy 36 2.2 20 -6.7 52 52 E 5 7 29.95 1014 10 16.0934 0 0
8:52 pm 20:52 Cloudy 36 2.2 20 -6.7 52 52 ESE 3 6 29.96 1015 10 16.0934 0 0
9:52 pm 21:52 Cloudy 36 2.2 22 -5.6 57 57 SE 6 9 29.95 1014 10 16.0934 0 0
10:52 pm 22:52 Cloudy 36 2.2 26 -3.3 67 67 NNE 3 6 29.95 1014 10 16.0934 0.001 0.001
11:33 pm 23:33 Cloudy with Light Snow 36 2.2 28 -2.2 73 73 NNE 6 9 29.94 1014 9 14.48406 0.001 0.001
11:52 pm 23:52 Cloudy with Light Snow 36 2.2 28 -2.2 73 73 ENE 7 11 29.93 1014 9 14.48406 0.001 0.001

Powered by AerisWeather